DW4152 Weather Reports


Display with metric or nautical units.
time (UTC)temp
F
wind
direction
speed
MPH
gust
MPH
rain 1hr
in
rain 24hr
in
rain mn
in
humidity
%
barometer
mb
20260906170108 81 5 0.0 3.0 0.00 0.24 0.01 82 1012.6
20260906164538 80 148 0.0 1.0 0.00 0.24 0.01 81 1012.5
20260906163038 80 74 0.0 0.0 0.00 0.24 0.01 83 1012.5
20260906161536 80 91 0.0 0.0 0.00 0.24 0.01 83 1012.5
20260906160033 79 42 0.0 0.0 0.00 0.24 0.01 86 1012.6
20260906154531 79 44 0.0 2.0 0.00 0.25 0.01 86 1012.6
20260906153031 79 69 0.0 1.0 0.00 0.25 0.01 85 1012.9
20260906151528 78 71 0.0 1.0 0.00 0.25 0.01 86 1012.8
20260906150026 78 29 0.0 2.0 0.00 0.25 0.01 86 1012.8
20260906144534 78 67 0.0 1.0 0.00 0.25 0.01 86 1012.8
20260906143022 77 68 0.0 0.0 0.00 0.25 0.01 87 1012.7
20260906141523 76 67 0.0 0.0 0.00 0.25 0.01 88 1012.5
20260906140016 76 67 0.0 0.0 0.00 0.25 0.01 93 1012.4
20260906134522 75 68 0.0 0.0 0.00 0.25 0.01 93 1012.4
20260906133009 74 68 0.0 0.0 0.00 0.25 0.01 94 1012.3
20260906131507 74 68 0.0 0.0 0.00 0.25 0.01 95 1012.3
20260906130002 74 68 0.0 2.0 0.00 0.25 0.01 96 1012.3
20260906124559 73 97 0.0 0.0 0.00 0.25 0.01 98 1012.2
20260906123130 73 165 0.0 0.0 0.00 0.25 0.01 98 1012.2
20260906121553 72 165 0.0 0.0 0.00 0.25 0.01 99 1012.0
20260906120051 72 165 0.0 0.0 0.00 0.25 0.01 99 1011.8
20260906114553 72 165 0.0 0.0 0.00 0.25 0.01 99 1011.7
20260906113049 72 165 0.0 0.0 0.00 0.25 0.01 99 1011.7
20260906111546 72 165 0.0 0.0 0.00 0.25 0.01 99 1011.8
20260906110044 72 165 0.0 0.0 0.00 0.25 0.01 99 1011.7
20260906104542 72 165 0.0 0.0 0.00 0.25 0.01 99 1011.5
20260906103045 72 165 0.0 0.0 0.00 0.25 0.01 99 1011.2
20260906101542 72 165 0.0 0.0 0.00 0.25 0.01 99 1011.1
20260906100038 72 165 0.0 0.0 0.00 0.25 0.01 99 1010.7
20260906094537 72 165 0.0 0.0 0.00 0.25 0.01 99 1010.8
20260906093041 73 217 0.0 0.0 0.00 0.25 0.01 99 1010.7
20260906091550 73 217 0.0 0.0 0.00 0.25 0.01 99 1010.4
20260906090036 73 217 0.0 0.0 0.00 0.25 0.01 99 1010.3
20260906084536 73 217 0.0 0.0 0.00 0.25 0.01 99 1010.1
20260906083037 73 217 0.0 0.0 0.00 0.25 0.01 99 1010.1
20260906081536 73 217 0.0 0.0 0.00 0.25 0.01 99 1010.2
20260906080038 73 221 0.0 0.0 0.00 0.25 0.01 99 1010.0
20260906074540 73 221 0.0 0.0 0.01 0.25 0.01 99 1009.9
20260906073034 73 221 0.0 0.0 0.01 0.25 0.01 99 1009.7
20260906071531 72 221 0.0 0.0 0.01 0.25 0.01 99 1009.9
20260906070031 72 221 0.0 0.0 0.01 0.25 0.01 99 1009.9
20260906064530 72 221 0.0 0.0 0.00 0.24 0.00 98 1009.9
20260906063030 73 221 0.0 0.0 0.00 0.24 0.00 99 1010.0
20260906061527 73 221 0.0 0.0 0.00 0.24 0.00 99 1010.1
20260906060026 73 221 0.0 0.0 0.00 0.24 0.00 98 1010.0
20260906054527 73 221 0.0 0.0 0.00 0.24 0.00 98 1010.1
20260906053021 73 221 0.0 0.0 0.00 0.24 0.00 99 1010.3
20260906051516 73 221 0.0 0.0 0.00 0.24 0.00 99 1010.4
20260906050013 74 221 0.0 0.0 0.00 0.24 0.00 98 1010.5
20260906044508 74 221 0.0 0.0 0.00 0.24 0.00 98 1010.5
20260906043005 74 221 0.0 0.0 0.00 0.24 0.00 98 1010.5
20260906041602 74 221 0.0 0.0 0.00 0.24 0.00 98 1010.7
20260906040055 73 221 0.0 0.0 0.00 0.24 0.00 98 1010.8
20260906034554 74 221 0.0 0.0 0.00 0.24 0.23 98 1010.8
20260906033108 74 221 0.0 0.0 0.00 0.24 0.23 98 1010.8
20260906031552 74 221 0.0 0.0 0.00 0.24 0.23 98 1010.6
20260906030054 74 221 0.0 0.0 0.00 0.24 0.23 98 1010.7
20260906024553 74 221 0.0 0.0 0.00 0.24 0.23 98 1010.5
20260906023054 74 221 0.0 0.0 0.00 0.24 0.23 98 1010.5
20260906021552 75 221 0.0 0.0 0.00 0.24 0.23 98 1010.4
20260906020104 75 221 0.0 0.0 0.00 0.24 0.23 98 1010.4
20260906014549 75 221 0.0 0.0 0.00 0.24 0.23 98 1010.4
20260906013058 75 221 0.0 0.0 0.00 0.24 0.23 98 1010.5
20260906011600 75 221 0.0 0.0 0.00 0.24 0.23 98 1010.2
20260906010048 76 221 0.0 0.0 0.00 0.24 0.23 97 1009.8
20260906004553 76 221 0.0 0.0 0.00 0.24 0.23 97 1009.7
20260906003047 76 221 0.0 0.0 0.00 0.24 0.23 97 1009.5
20260906001548 76 221 0.0 0.0 0.00 0.24 0.23 97 1009.2
20260906000054 77 221 0.0 0.0 0.00 0.24 0.23 97 1009.2
20260905234548 77 221 0.0 0.0 0.00 0.32 0.23 97 1009.0
20260905233046 77 221 0.0 0.0 0.00 0.32 0.23 96 1009.0
20260905231544 77 221 0.0 0.0 0.00 0.32 0.23 96 1008.8
20260905230044 77 221 0.0 0.0 0.00 0.32 0.23 96 1008.5
20260905224550 78 221 0.0 0.0 0.00 0.38 0.23 95 1008.6
20260905223042 78 221 0.0 0.0 0.00 0.38 0.23 95 1008.5
20260905221540 78 221 0.0 0.0 0.00 0.38 0.23 96 1008.7
20260905220018 77 221 0.0 0.0 0.00 0.38 0.23 96 1009.0
20260905214519 76 221 0.0 0.0 0.00 0.38 0.23 97 1009.1
20260905213016 76 221 0.0 0.0 0.00 0.38 0.23 98 1008.8
20260905211515 76 221 0.0 0.0 0.00 0.38 0.23 98 1009.0
20260905210015 75 221 0.0 0.0 0.00 0.38 0.23 97 1009.5
20260905204515 75 221 0.0 0.0 0.00 0.38 0.23 98 1009.7
20260905203014 75 221 0.0 0.0 0.00 0.38 0.23 97 1009.2
20260905201512 74 221 0.0 0.0 0.00 0.38 0.23 97 1008.6
20260905200020 74 221 0.0 0.0 0.01 0.38 0.23 97 1008.7
20260905194513 74 221 0.0 0.0 0.09 0.38 0.23 96 1009.1
20260905193010 74 221 0.0 2.0 0.23 0.38 0.23 95 1008.7
20260905191507 75 207 0.0 0.0 0.23 0.38 0.23 94 1009.3
20260905190004 76 207 0.0 3.0 0.22 0.37 0.22 92 1009.1
20260905184620 79 46 0.0 10.0 0.14 0.28 0.14 82 1009.8
20260905183055 91 126 0.0 0.0 0.00 0.15 0.00 69 1009.6
20260905181559 93 219 0.0 0.0 0.00 0.15 0.00 67 1008.8
20260905180053 95 219 0.0 2.0 0.00 0.15 0.00 60 1008.9
20260905174549 95 165 1.0 6.0 0.00 0.15 0.00 62 1009.6
20260905173044 93 216 0.0 1.0 0.00 0.15 0.00 64 1009.8
20260905171543 92 199 0.0 4.0 0.00 0.15 0.00 64 1010.2